THORAD DELTA 1 DEB, 9985

Orbit data source: Space-Track

THORAD DELTA 1 DEB, 9985 is space debris in SSO originally from a launch on Fri, 15 Nov 1974 UTC launched from the Air Force Western Test Range (AFWTR). Debris objects in space refer to the collection of defunct objects orbiting the Earth. Examples of debris include non-operational satellites, rocket bodies, and fragments generated from explosions, collisions, or faulty payload assembly.

Loading next visibility...
Identifier
9985, 1974-089EC
Orbit
SSO
Country
Flag of USUS
Related business
Manufacturer
Unknown
Mission
Spacecraft
Bus & Motor
Unknown
Mass
Unknown
Launch date (UTC)
1974-11-15 (51 years ago)
Launch vehicle
Unknown
Launch site
Air Force Western Test Range (AFWTR)
Object type
Payload
Rocket body
Debris
Shape & HBR
Unknown shape, 0.1 m
Radar Cross Section
Small (<0.1 m²)

Expand to show TLE details & history
Last TLE update: 13 hours ago

TLE from 13 hours ago
0 THORAD DELTA 1 DEB
1 09985U 74089EC  26095.40501846  .00000028  00000-0  48791-3 0  9991
2 09985 101.9869  59.7211 0048464 164.0854 349.3248 12.49087427343395
Epoch: 2026-04-05T09:43Z
TLE epoch observation values (Epoch: 2026-04-05T09:43:13.594Z)
Latitude
26.1007°
Longitude
-93.85551°
Altitude
1,433.809 km
Speed
7.164 km/s
True Right ascension
16h 22m 38s
True Declination
25° 58' 37"
Sunlit
Object was in daylight at epoch
Visualization orbit readout
Latitude
Unknown
Longitude
Unknown
Altitude
Unknown
Speed
Unknown
Apparent Right ascension
Unknown
Apparent Declination
Unknown
Sunlit
N/A
Visualization observer readout
Local Sidereal Time
04:55:55
Azimuth
Unknown
Elevation
Unknown
Doppler factor
Unknown
Orbital elements
Apogee altitude
1,503.892 km
Perigee altitude
1,427.861 km
Semi-major axis
7,844.013 km
Eccentricity
0.00485
Inclination
101.9869°
RAAN
59.7211°
Arg. of periapsis
164.0854°
True anomaly
349.22131°
Mean anomaly
349.3248°
Eccentric anomaly
349.27312°
Mean motion
3.12418 °/min
Orbital period
115.23 mins
BSTAR
0.00048791
Loading maneuver chart data...
Computing Atmospheric mass density...

Documentation

Showing up to 5 results
|